Погода в Бобруйске

Погода в Бобруйске : погода сейчас, прогноз погоды и архив. Всё, что Вы хотите узнать о погоде в Бобруйске!

Хотите узнать прогноз погоды в Бобруйске? Тогда Вам сюда: Погода в Бобруйске

Поиск расширенной информации на нашем сайте:

Полезная информация: komatsu комсомольск
Труба медная хабаровск еще по теме.

Другие новости

Новости СМИ2

Главная страница сайта

Новости сайта

02.10.2013

Напоминаем, что на нашем новом сайте вы можете получить высокодетализированные прогнозы погоды по пунктам России, СНГ и мира (включающие важные для авиации метеовеличины, такие как направление и скорость ветра, видимость, явления погоды, количество и форма облачности, нижняя и верхняя граница облачности), а также ознакомиться с разнообразными материалами по авиационной метеорологии и подборкой полезных ссылок на эту тему.

Сайт Метеоцентр.Азия посвящён разработке технологий оптимизации авиаметеорологического обслуживания, включая проектирование и перспективное создание нескольких автоматизированных авиаметеорологических систем:
- система выпуска высокодетальных прогностических карт явлений погоды для нижнего воздушного пространства по России и ближнему зарубежью;
- система верификации прогнозов TAF (выпускаемых синоптиками официальных АМСГ РФ и ближнего зарубежья) и AUTOTAF (выпускаемых сайтом Метеоцентр.Азия) - выявление ошибок, онлайн-сопоставление с фактической погодой METAR, автоматическое внесение коррективов в прогнозы при резком отклонении фактической погоды от прогноза, подсчёт оправдываемости прогнозов по элементам и в целом;
- система обработки, анализа и отображения авиаметеорологической информации для применения провайдерами метеорологической информации.

Рекомендуем: для вашего бизнеса покупка офиса в бц Ринко Плаза Тимура Фрунзе ул., 24

Погода в Бобруйске - сегодня

Время (UTC), дата Ветер
(°,м/с) 
Видим.   Явления Облачность Т
(°С)
Тd
(°С)
f(%) Тe
(°С)
Pmin
(гПа)
dP
(гПа)
Po
(мм)
O2
(г/м3)
Тmin Tmax R s Состояние
почвы
15 21.01.17 320 (СЗ) 4{10}  10 км    5/5 300 м 
[Sc]
+0.6 -1.5 86 -2  1023.8  1.6  753  303      0.4     
18 21.01.17 330 (СЗ) 10 км    ясно 
-1.9 -3.2 91 -4  1026.9  2.9  755  307    +1.6  0.4  16   
21 21.01.17 290 (З) 6000 м  дымка  ясно 
-4.4 -4.7 98 -7  1029.4  2.2  757  311           
00 22.01.17 310 (СЗ) 6000 м  дымка  9/9 500 м 
[Sc]
-4.6 -4.8 98 -6  1030.8  1.4  758  311           
03 22.01.17 290 (З) 8000 м  дымка  4/4 300 м 
[Sc]
-2.7 -3.9 91 -5  1031.1  0.4  758  309        16   
06 22.01.17 250 (З) 7000 м  дымка  9/9 480 м 
[Sc]
-3.2 -4.1 93 -6  1031.1  758  310  -7.8      16  равномерный
мокрый или
старый снег
100% 
09 22.01.17 250 (З) 3800 м  дымка  10/10 210 м 
[Sc]
-3.8 -4 99 -7  1031.2  758  310           
12 22.01.17 250 (З) 6{10}  4800 м  дымка  10/10 210 м 
[Sc]
-1.8 -2.2 97 -6  1029.8  -1.2  757  307           
15 22.01.17 260 (З) 5{10}  6000 м  дымка  10/10 210 м 
[Sc]
-0.3 -0.7 97 -3  1029  -0.7  757  305           
18 22.01.17 260 (З) 7-11{10}  6000 м  дымка  10/10 210 м 
[Sc]
-0.6 -1 97 -5  1028.4  -0.6  756  306    -0.2    16   
21 22.01.17 250 (З) 5{11}  6000 м  дымка  10/10 210 м 
[Sc]
-0.9 -1.2 98 -4  1028.2  -0.2  756  306           
00 23.01.17 260 (З) 5{11}  7000 м  дымка  10/10 210 м 
[Sc]
-1.3 -1.7 97 -5  1027.5  -0.8  756  306           
03 23.01.17 250 (З) 5{11}  6000 м  дымка  10/10 210 м 
[Sc]
-1.7 -1.9 99 -5  1026.3  -1.1  755  306        16   
06 23.01.17 250 (З) 6000 м  дымка  10/10 210 м 
[Sc]
-1.8 -2 99 -4  1025.5  -0.8  754  306  -1.9      16  равномерный
мокрый или
старый снег
100% 
09 23.01.17 230 (ЮЗ) 5{10}  9000 м  дымка  10/10 240 м 
[Sc]
-1.7 -2.1 97 -5  1024.6  -0.9  754  306           
12 23.01.17 240 (ЮЗ) 6{11}  9000 м  дымка  10/10 210 м 
[St]
-1.5 -1.9 97 -5  1022.1  -2.4  752  305           
15 23.01.17 240 (ЮЗ) 7-12{13}  8000 м  дымка  10/10 210 м 
[St]
-1.7 -2.1 97 -6  1020.9  -1.2  751  305           
18 23.01.17 260 (З) 6{12}  9000 м  дымка  10/10 210 м 
[St]
-1.9 -2.6 95 -6  1020  -0.9  750  305    -1.3    16   
21 23.01.17 260 (З) 6{10}  5000 м  дымка  10/10 210 м 
[St]
-2 -2.4 97 -6  1019.2  -0.9  749  304           
00 24.01.17 260 (З) 7-11{11}  6000 м  дымка  10/10 240 м 
[St]
-2.5 -3.5 93 -7  1018.1  -1.1  749  305           
03 24.01.17 290 (З) 5{11}  6000 м  дымка  10/10 240 м 
[St]
-2.7 -3.7 93 -6  1017.4  -0.7  748  305        16   
06 24.01.17 250 (З) 3{10}  6000 м  дымка  10/10 240 м 
[St]
-2.6 -3.3 95 -5  1016.7  -0.6  748  305  -2.8      16  равномерный
мокрый или
старый снег
100% 
09 24.01.17 260 (З) 6000 м  дымка{морось} [диам. гололёда 0 мм]  10/10 270 м 
[St]
-1.8 -2.8 93 -5  1017.2  0.6  748  304           
12 24.01.17 270 (З) 8000 м  дымка{морось}  9/9 420 м 
[Sc]
-0.5 -2.1 89 -4  1016.6  -0.5  748  302           
15 24.01.17 260 (З) 8000 м  дымка  9/9 600 м 
[Sc]
-0.2 -1.8 89 -3  1017.2  0.5  748  302      0.0     
Время (UTC), дата Ветер
(°,м/с) 
Видим.   Явления Облачность Т
(°С)
Тd
(°С)
f(%) Тe
(°С)
Pmin
(гПа)
dP
(гПа)
Po
(мм)
O2
(г/м3)
Тmin Tmax R s Состояние
почвы

Для получения пояснительной информации подведите курсор к названию столбца.

ПОГОДА в Бобруйске - архив

Всё, что Вы хотите узнать о погоде в Бобруйске - удобно и подробно!

Выберите нужную дату (начиная с 1 января 2015* года) и нажмите кнопку "Найти".
Будут отображены архивные сводки погоды по пункту Бобруйск, начиная с указанной даты.


Отображать данные в формате CSV (для использования в таблицах Excel)


Внимание! Наш архив погоды предназначен исключительно для личного некоммерческого использования в познавательных целях. Если Вам необходимы официальные справки о состоянии погоды (для производственных, юридических, коммерческих и т.п. целей), обращайтесь в органы Росгидромета.

*Примечание: данная дата относится к архиву по метеостанциям СССР (Россия, СНГ, Балтия).
Архив по метеостанциям Зарубежной Европы и Азии (кроме Китая) хранится 10 дней, по другим регионам земного шара (Китай, Африка, Америка, Австралия, Океания) - 1 день.

Бобруйск - район местоположения метеостанции


Название, широта, долгота, высота метеостанции:
Бобруйск 53.2°ш. 29.2°д. 156 м над ур. моря [Беларусь]

Дополнительная информация

В oтличие oт бoльшинства пoгoдных сайтoв мы публикуем пoдрoбную метеoинфoрмацию в детальнoм прoфессиoнальнoм фoрмате.

Характеристики температуры и влажнoсти вoздуха измеряются на высoте 2 м в тени вдали oт зданий и деревьев.
Скoрoсть ветра измеряется на высoте 10 м (на урoвне рoста челoвека скoрoсть ветра ниже в 1.5-2 раза). Если метеoстанция нахoдится в гoрoде или в лесу, тo скoрoсть ветра занижена на 2-4 м/с пo сравнению с oткрытым местoм. Скoрoсть ветра над акватoриями крупных рек и oзёр, а также на вершинах хoлмoв на 2-5 м/с выше, чем в oбычных услoвиях.
Атмoсфернoе давление в разных тoчках местнoсти мoжет значительнo oтличаться oт давления на метеoстанции, в зависимoсти oт услoвий рельефа (при пoдъёме на 10 м давление пoнижается примернo на 1 мм рт.ст.).